VOI900 MMMX-MGGT

Flight info

Callsign VOI900
Flight time 1h 26m
Altitude 34000
Route UKUNO3A UKUNO UT108 VER UA552 AUR
Aircraft A21N/M-SDE3FGHIRWY/LB1

Departure

Time 2026-05-08 20:24
Airport Mexico City Benito Juárez International Airport (MMMX)

Arrival

Time 2026-05-08 21:51
Airport La Aurora International Airport (MGGT)
Time Latitude Longitude Altitude Speed Heading
2026-05-08 20:02 19.42332 -99.07861 7348 ft 0 kts 59°
2026-05-08 20:16 19.42330 -99.07864 7348 ft 2 kts 59°
2026-05-08 20:16 19.42323 -99.07878 7348 ft 1 kts 59°
2026-05-08 20:16 19.42317 -99.07888 7348 ft 2 kts 44°
2026-05-08 20:17 19.42303 -99.07896 7348 ft 2 kts
2026-05-08 20:17 19.42288 -99.07895 7348 ft 2 kts 338°
2026-05-08 20:17 19.42279 -99.07889 7348 ft 0 kts 315°
2026-05-08 20:17 19.42276 -99.07885 7348 ft 0 kts 308°
2026-05-08 20:20 19.42279 -99.07890 7348 ft 2 kts 308°
2026-05-08 20:20 19.42295 -99.07910 7348 ft 6 kts 310°
2026-05-08 20:21 19.42334 -99.07958 7348 ft 9 kts 311°
2026-05-08 20:21 19.42388 -99.08014 7349 ft 11 kts 322°
2026-05-08 20:21 19.42462 -99.08063 7349 ft 13 kts 329°
2026-05-08 20:21 19.42544 -99.08115 7350 ft 14 kts 328°
2026-05-08 20:22 19.42630 -99.08170 7350 ft 13 kts 330°
2026-05-08 20:22 19.42708 -99.08217 7351 ft 11 kts 333°
2026-05-08 20:22 19.42770 -99.08224 7352 ft 4 kts 15°
2026-05-08 20:22 19.42782 -99.08219 7352 ft 0 kts 20°
2026-05-08 20:23 19.42815 -99.08203 7352 ft 9 kts 26°
2026-05-08 20:23 19.42909 -99.08152 7353 ft 20 kts 31°
2026-05-08 20:23 19.43066 -99.07941 7352 ft 67 kts 59°
2026-05-08 20:23 19.43427 -99.07304 7346 ft 131 kts 59°
2026-05-08 20:24 19.43986 -99.06303 7342 ft 181 kts 59°
2026-05-08 20:24 19.44634 -99.05118 7741 ft 186 kts 60°
2026-05-08 20:24 19.45270 -99.03915 8262 ft 190 kts 61°
2026-05-08 20:24 19.45901 -99.02690 8841 ft 190 kts 60°
2026-05-08 20:25 19.46596 -99.01522 9271 ft 189 kts 54°
2026-05-08 20:25 19.47392 -99.00356 9461 ft 199 kts 53°
2026-05-08 20:25 19.48209 -98.99125 9670 ft 209 kts 55°
2026-05-08 20:25 19.49038 -98.97803 10055 ft 224 kts 56°
2026-05-08 20:26 19.49899 -98.96350 10451 ft 243 kts 58°
2026-05-08 20:26 19.50810 -98.94738 10874 ft 263 kts 59°
2026-05-08 20:26 19.51788 -98.92990 11226 ft 289 kts 58°
2026-05-08 20:26 19.52805 -98.91054 11753 ft 307 kts 64°
2026-05-08 20:27 19.53620 -98.88938 12548 ft 314 kts 72°
2026-05-08 20:27 19.54241 -98.86736 13463 ft 317 kts 74°
2026-05-08 20:27 19.54828 -98.84494 14320 ft 321 kts 75°
2026-05-08 20:27 19.55424 -98.82192 15163 ft 326 kts 75°
2026-05-08 20:28 19.56025 -98.79877 16037 ft 331 kts 75°
2026-05-08 20:28 19.56637 -98.77531 16902 ft 336 kts 76°
2026-05-08 20:28 19.57259 -98.75116 17745 ft 339 kts 79°
2026-05-08 20:28 19.57526 -98.72658 18325 ft 341 kts 92°
2026-05-08 20:29 19.57269 -98.70140 18901 ft 347 kts 103°
2026-05-08 20:29 19.56770 -98.67602 19146 ft 361 kts 104°
2026-05-08 20:29 19.56205 -98.64926 19398 ft 376 kts 104°
2026-05-08 20:29 19.55636 -98.62214 19798 ft 383 kts 104°
2026-05-08 20:30 19.55063 -98.59418 20339 ft 387 kts 104°
2026-05-08 20:30 19.54499 -98.56637 20878 ft 390 kts 104°
2026-05-08 20:30 19.53928 -98.53793 21397 ft 394 kts 104°
2026-05-08 20:30 19.53361 -98.50957 21898 ft 397 kts 104°
2026-05-08 20:31 19.52788 -98.48102 22402 ft 400 kts 104°
2026-05-08 20:31 19.52204 -98.45187 22912 ft 404 kts 104°
2026-05-08 20:31 19.51616 -98.42252 23397 ft 407 kts 103°
2026-05-08 20:31 19.51030 -98.39333 23877 ft 410 kts 104°
2026-05-08 20:32 19.50429 -98.36344 24339 ft 414 kts 104°
2026-05-08 20:32 19.49827 -98.33362 24794 ft 417 kts 104°
2026-05-08 20:32 19.49223 -98.30360 25237 ft 420 kts 104°
2026-05-08 20:32 19.48607 -98.27298 25657 ft 424 kts 104°
2026-05-08 20:33 19.47990 -98.24239 26061 ft 427 kts 104°
2026-05-08 20:33 19.47362 -98.21130 26472 ft 431 kts 104°
2026-05-08 20:33 19.46736 -98.18029 26872 ft 433 kts 104°
2026-05-08 20:33 19.46101 -98.14877 27251 ft 437 kts 104°
2026-05-08 20:34 19.45467 -98.11740 27615 ft 440 kts 104°
2026-05-08 20:34 19.44827 -98.08587 27989 ft 442 kts 104°
2026-05-08 20:34 19.43568 -98.02152 28678 ft 450 kts 102°
2026-05-08 20:35 19.43115 -97.98825 29039 ft 453 kts 98°
2026-05-08 20:35 19.42780 -97.95525 29406 ft 456 kts 97°
2026-05-08 20:35 19.42459 -97.92151 29759 ft 458 kts 97°
2026-05-08 20:35 19.42143 -97.88810 30100 ft 461 kts 97°
2026-05-08 20:36 19.41818 -97.85396 30423 ft 464 kts 97°
2026-05-08 20:36 19.41495 -97.82012 30721 ft 467 kts 97°
2026-05-08 20:36 19.41161 -97.78556 31032 ft 470 kts 97°
2026-05-08 20:36 19.40829 -97.75134 31462 ft 469 kts 96°
2026-05-08 20:37 19.40497 -97.71725 31952 ft 467 kts 96°
2026-05-08 20:37 19.40165 -97.68304 32406 ft 466 kts 96°
2026-05-08 20:37 19.39829 -97.64872 32830 ft 465 kts 96°
2026-05-08 20:37 19.39499 -97.61488 33186 ft 466 kts 96°
2026-05-08 20:38 19.39162 -97.58048 33517 ft 468 kts 96°
2026-05-08 20:38 19.38827 -97.54637 33854 ft 469 kts 96°
2026-05-08 20:38 19.38490 -97.51207 34173 ft 470 kts 96°
2026-05-08 20:38 19.38148 -97.47742 34350 ft 472 kts 96°
2026-05-08 20:39 19.37809 -97.44311 34351 ft 472 kts 97°
2026-05-08 20:39 19.37120 -97.37366 34372 ft 472 kts 97°
2026-05-08 20:40 19.36429 -97.30434 34388 ft 472 kts 97°
2026-05-08 20:40 19.35742 -97.23542 34407 ft 471 kts 97°
2026-05-08 20:41 19.35050 -97.16646 34353 ft 471 kts 97°
2026-05-08 20:41 19.34355 -97.09740 34245 ft 472 kts 97°
2026-05-08 20:42 19.33420 -97.02866 34168 ft 471 kts 102°
2026-05-08 20:42 19.31938 -96.96103 34108 ft 471 kts 104°
2026-05-08 20:43 19.30403 -96.89368 34081 ft 471 kts 104°
2026-05-08 20:43 19.28877 -96.82655 34041 ft 470 kts 104°
2026-05-08 20:44 19.27353 -96.75938 33998 ft 470 kts 104°
2026-05-08 20:44 19.25825 -96.69211 33963 ft 470 kts 104°
2026-05-08 20:45 19.24287 -96.62448 33933 ft 470 kts 104°
2026-05-08 20:45 19.22758 -96.55736 33909 ft 471 kts 104°
2026-05-08 20:46 19.21221 -96.49000 33875 ft 471 kts 104°
2026-05-08 20:46 19.19681 -96.42265 33861 ft 470 kts 104°
2026-05-08 20:47 19.18147 -96.35555 33844 ft 470 kts 104°
2026-05-08 20:47 19.16598 -96.28816 33835 ft 470 kts 105°
2026-05-08 20:48 19.14655 -96.22270 33834 ft 469 kts 112°
2026-05-08 20:48 19.11997 -96.15978 33825 ft 468 kts 119°
2026-05-08 20:49 19.08663 -96.10062 33822 ft 467 kts 125°
2026-05-08 20:49 19.05007 -96.04366 33814 ft 468 kts 126°
2026-05-08 20:50 19.01345 -95.98672 33802 ft 468 kts 126°
2026-05-08 20:50 18.97675 -95.92947 33795 ft 468 kts 125°
2026-05-08 20:51 18.94036 -95.87272 33786 ft 467 kts 125°
2026-05-08 20:51 18.90388 -95.81589 33787 ft 467 kts 125°
2026-05-08 20:52 18.86709 -95.75882 33769 ft 467 kts 125°
2026-05-08 20:52 18.83060 -95.70222 33764 ft 467 kts 125°
2026-05-08 20:53 18.79383 -95.64518 33762 ft 467 kts 125°
2026-05-08 20:53 18.75726 -95.58849 33765 ft 467 kts 125°
2026-05-08 20:54 18.72074 -95.53191 33762 ft 467 kts 125°
2026-05-08 20:54 18.68417 -95.47528 33761 ft 467 kts 125°
2026-05-08 20:55 18.64759 -95.41871 33768 ft 467 kts 125°
2026-05-08 20:55 18.61105 -95.36222 33766 ft 466 kts 125°
2026-05-08 20:56 18.57430 -95.30547 33780 ft 466 kts 125°
2026-05-08 20:56 18.53774 -95.24914 33806 ft 466 kts 125°
2026-05-08 20:57 18.50116 -95.19289 33815 ft 466 kts 125°
2026-05-08 20:57 18.46429 -95.13618 33797 ft 466 kts 125°
2026-05-08 20:58 18.42772 -95.07995 33794 ft 465 kts 125°
2026-05-08 20:58 18.39117 -95.02377 33806 ft 465 kts 125°
2026-05-08 20:59 18.35459 -94.96763 33818 ft 465 kts 125°
2026-05-08 20:59 18.31789 -94.91133 33824 ft 465 kts 125°
2026-05-08 21:00 18.28136 -94.85534 33821 ft 465 kts 125°
2026-05-08 21:00 18.24480 -94.79933 33811 ft 465 kts 125°
2026-05-08 21:01 18.20801 -94.74301 33788 ft 465 kts 125°
2026-05-08 21:01 18.17148 -94.68713 33777 ft 465 kts 125°
2026-05-08 21:02 18.13461 -94.63081 33776 ft 465 kts 125°
2026-05-08 21:02 18.09510 -94.57719 33771 ft 463 kts 131°
2026-05-08 21:03 18.05034 -94.52838 33775 ft 462 kts 136°
2026-05-08 21:03 18.00418 -94.48123 33764 ft 462 kts 137°
2026-05-08 21:04 17.95805 -94.43413 33758 ft 462 kts 136°
2026-05-08 21:04 17.91192 -94.38699 33756 ft 462 kts 136°
2026-05-08 21:05 17.86534 -94.33939 33752 ft 462 kts 137°
2026-05-08 21:05 17.81922 -94.29230 33756 ft 462 kts 137°
2026-05-08 21:06 17.77312 -94.24525 33760 ft 461 kts 137°
2026-05-08 21:06 17.72707 -94.19827 33759 ft 461 kts 137°
2026-05-08 21:07 17.68104 -94.15138 33763 ft 461 kts 137°
2026-05-08 21:07 17.63500 -94.10449 33773 ft 461 kts 137°
2026-05-08 21:08 17.58866 -94.05733 33783 ft 462 kts 137°
2026-05-08 21:08 17.54252 -94.01041 33794 ft 462 kts 136°
2026-05-08 21:09 17.49646 -93.96362 33798 ft 462 kts 136°
2026-05-08 21:09 17.45031 -93.91676 33811 ft 461 kts 136°
2026-05-08 21:10 17.40389 -93.86965 33837 ft 461 kts 136°
2026-05-08 21:10 17.35779 -93.82291 33850 ft 461 kts 136°
2026-05-08 21:11 17.31171 -93.77623 33860 ft 461 kts 137°
2026-05-08 21:11 17.26560 -93.72955 33862 ft 461 kts 136°
2026-05-08 21:12 17.21954 -93.68297 33868 ft 461 kts 136°
2026-05-08 21:12 17.17340 -93.63633 33877 ft 461 kts 136°
2026-05-08 21:13 17.12698 -93.58942 33879 ft 461 kts 136°
2026-05-08 21:13 17.08085 -93.54285 33890 ft 461 kts 136°
2026-05-08 21:14 17.03474 -93.49632 33899 ft 460 kts 136°
2026-05-08 21:14 16.98860 -93.44982 33926 ft 460 kts 136°
2026-05-08 21:15 16.94256 -93.40340 33940 ft 460 kts 136°
2026-05-08 21:15 16.89633 -93.35684 33957 ft 461 kts 136°
2026-05-08 21:16 16.84980 -93.31007 33972 ft 460 kts 137°
2026-05-08 21:16 16.80360 -93.26373 33979 ft 460 kts 137°
2026-05-08 21:17 16.75736 -93.21735 33979 ft 460 kts 137°
2026-05-08 21:17 16.71119 -93.17105 33961 ft 460 kts 136°
2026-05-08 21:18 16.66510 -93.12485 33954 ft 459 kts 136°
2026-05-08 21:18 16.61887 -93.07850 33945 ft 460 kts 136°
2026-05-08 21:19 16.57318 -93.03160 33927 ft 460 kts 134°
2026-05-08 21:19 16.53146 -92.98090 33907 ft 460 kts 129°
2026-05-08 21:20 16.49093 -92.92931 33895 ft 460 kts 129°
2026-05-08 21:20 16.45037 -92.87773 33901 ft 460 kts 129°
2026-05-08 21:21 16.40977 -92.82621 33909 ft 459 kts 129°
2026-05-08 21:21 16.36920 -92.77477 33910 ft 460 kts 129°
2026-05-08 21:22 16.32860 -92.72334 33915 ft 459 kts 129°
2026-05-08 21:22 16.28798 -92.67200 33922 ft 459 kts 129°
2026-05-08 21:23 16.24710 -92.62039 33916 ft 459 kts 129°
2026-05-08 21:23 16.20646 -92.56909 33916 ft 459 kts 129°
2026-05-08 21:24 16.16593 -92.51794 33916 ft 459 kts 129°
2026-05-08 21:24 16.12540 -92.46684 33913 ft 458 kts 129°
2026-05-08 21:25 16.08488 -92.41571 33935 ft 454 kts 129°
2026-05-08 21:25 16.04478 -92.36521 33942 ft 452 kts 129°
2026-05-08 21:26 16.00453 -92.31460 33938 ft 452 kts 129°
2026-05-08 21:26 15.96466 -92.26442 33931 ft 452 kts 129°
2026-05-08 21:27 15.92431 -92.21365 33934 ft 452 kts 129°
2026-05-08 21:27 15.88431 -92.16338 33942 ft 452 kts 129°
2026-05-08 21:28 15.84421 -92.11302 33951 ft 451 kts 129°
2026-05-08 21:28 15.80420 -92.06280 33947 ft 451 kts 129°
2026-05-08 21:29 15.76388 -92.01223 33954 ft 452 kts 129°
2026-05-08 21:29 15.72382 -91.96195 33972 ft 452 kts 128°
2026-05-08 21:30 15.68694 -91.90949 34031 ft 451 kts 124°
2026-05-08 21:30 15.66918 -91.88242 33919 ft 452 kts 123°
2026-05-08 21:30 15.65169 -91.85565 33637 ft 449 kts 123°
2026-05-08 21:30 15.63414 -91.82879 33352 ft 446 kts 124°
2026-05-08 21:31 15.61682 -91.80231 33071 ft 444 kts 124°
2026-05-08 21:31 15.59943 -91.77574 32787 ft 442 kts 124°
2026-05-08 21:31 15.58222 -91.74946 32423 ft 443 kts 124°
2026-05-08 21:31 15.56480 -91.72288 31904 ft 443 kts 124°
2026-05-08 21:32 15.54762 -91.69668 31302 ft 443 kts 124°
2026-05-08 21:32 15.53023 -91.67017 30686 ft 441 kts 124°
2026-05-08 21:32 15.51325 -91.64429 30268 ft 435 kts 124°
2026-05-08 21:32 15.49621 -91.61832 29832 ft 430 kts 124°
2026-05-08 21:33 15.47956 -91.59297 29388 ft 426 kts 124°
2026-05-08 21:33 15.46284 -91.56753 28923 ft 422 kts 124°
2026-05-08 21:33 15.44645 -91.54257 28459 ft 419 kts 124°
2026-05-08 21:33 15.42998 -91.51752 27980 ft 415 kts 124°
2026-05-08 21:34 15.41384 -91.49297 27510 ft 412 kts 124°
2026-05-08 21:34 15.39790 -91.46871 27042 ft 408 kts 124°
2026-05-08 21:34 15.38185 -91.44433 26545 ft 405 kts 124°
2026-05-08 21:34 15.36613 -91.42041 26058 ft 402 kts 124°
2026-05-08 21:35 15.35032 -91.39638 25568 ft 399 kts 124°
2026-05-08 21:35 15.33490 -91.37296 25092 ft 396 kts 124°
2026-05-08 21:35 15.31928 -91.34924 24608 ft 393 kts 125°
2026-05-08 21:35 15.30391 -91.32592 24125 ft 390 kts 124°
2026-05-08 21:36 15.28874 -91.30294 23642 ft 388 kts 124°
2026-05-08 21:36 15.27344 -91.27977 23147 ft 386 kts 124°
2026-05-08 21:36 15.25840 -91.25698 22654 ft 384 kts 124°
2026-05-08 21:36 15.24330 -91.23409 22172 ft 381 kts 124°
2026-05-08 21:37 15.22844 -91.21156 21708 ft 379 kts 124°
2026-05-08 21:37 15.21367 -91.18919 21241 ft 377 kts 124°
2026-05-08 21:37 15.19881 -91.16668 20769 ft 374 kts 124°
2026-05-08 21:37 15.18428 -91.14467 20326 ft 372 kts 124°
2026-05-08 21:38 15.16960 -91.12243 19857 ft 370 kts 124°
2026-05-08 21:38 15.15520 -91.10062 19386 ft 369 kts 124°
2026-05-08 21:38 15.14062 -91.07855 18909 ft 367 kts 124°
2026-05-08 21:38 15.12634 -91.05696 18460 ft 366 kts 124°
2026-05-08 21:39 15.11188 -91.03510 17985 ft 364 kts 124°
2026-05-08 21:39 15.09767 -91.01363 17522 ft 363 kts 124°
2026-05-08 21:39 15.08349 -90.99220 17070 ft 362 kts 124°
2026-05-08 21:39 15.06920 -90.97061 16616 ft 360 kts 124°
2026-05-08 21:40 15.05514 -90.94938 16157 ft 359 kts 124°
2026-05-08 21:40 15.04091 -90.92791 15683 ft 359 kts 124°
2026-05-08 21:40 15.02693 -90.90684 15196 ft 358 kts 124°
2026-05-08 21:41 14.99923 -90.86508 14480 ft 345 kts 124°
2026-05-08 21:41 14.98564 -90.84461 14112 ft 340 kts 123°
2026-05-08 21:41 14.97241 -90.82467 13751 ft 335 kts 123°
2026-05-08 21:41 14.95943 -90.80508 13405 ft 330 kts 124°
2026-05-08 21:42 14.94643 -90.78545 13053 ft 325 kts 124°
2026-05-08 21:42 14.93380 -90.76643 12707 ft 320 kts 124°
2026-05-08 21:42 14.92137 -90.74769 12380 ft 315 kts 124°
2026-05-08 21:42 14.90894 -90.72900 12078 ft 310 kts 123°
2026-05-08 21:43 14.89675 -90.71065 11771 ft 305 kts 123°
2026-05-08 21:43 14.88489 -90.69280 11492 ft 301 kts 123°
2026-05-08 21:43 14.87307 -90.67498 11224 ft 294 kts 123°
2026-05-08 21:43 14.86166 -90.65780 10972 ft 288 kts 123°
2026-05-08 21:44 14.85045 -90.64093 10724 ft 282 kts 123°
2026-05-08 21:44 14.83937 -90.62427 10295 ft 275 kts 122°
2026-05-08 21:44 14.82873 -90.60825 9869 ft 269 kts 122°
2026-05-08 21:44 14.81836 -90.59267 9516 ft 259 kts 122°
2026-05-08 21:45 14.80820 -90.57738 9082 ft 253 kts 122°
2026-05-08 21:45 14.79846 -90.56271 8767 ft 242 kts 122°
2026-05-08 21:45 14.78897 -90.54845 8701 ft 237 kts 122°
2026-05-08 21:45 14.77985 -90.53475 8629 ft 225 kts 123°
2026-05-08 21:46 14.77127 -90.52187 8525 ft 209 kts 123°
2026-05-08 21:46 14.76284 -90.51035 8335 ft 195 kts 130°
2026-05-08 21:46 14.75312 -90.50137 8158 ft 174 kts 141°
2026-05-08 21:46 14.74334 -90.49528 7992 ft 157 kts 152°
2026-05-08 21:47 14.73318 -90.49118 7935 ft 158 kts 161°
2026-05-08 21:47 14.72239 -90.48875 7661 ft 157 kts 171°
2026-05-08 21:47 14.71158 -90.48820 7447 ft 155 kts 181°
2026-05-08 21:47 14.70082 -90.48968 7216 ft 155 kts 192°
2026-05-08 21:48 14.69046 -90.49278 7027 ft 154 kts 196°
2026-05-08 21:48 14.68025 -90.49626 6791 ft 153 kts 198°
2026-05-08 21:48 14.67015 -90.49971 6539 ft 151 kts 198°
2026-05-08 21:48 14.66001 -90.50316 6356 ft 150 kts 198°
2026-05-08 21:49 14.65004 -90.50648 6129 ft 149 kts 196°
2026-05-08 21:49 14.64007 -90.50951 5915 ft 148 kts 197°
2026-05-08 21:49 14.63033 -90.51268 5717 ft 148 kts 198°
2026-05-08 21:49 14.62046 -90.51597 5510 ft 148 kts 197°
2026-05-08 21:50 14.61048 -90.51890 5303 ft 147 kts 195°
2026-05-08 21:50 14.60076 -90.52184 5071 ft 147 kts 196°
2026-05-08 21:50 14.59106 -90.52498 4925 ft 141 kts 197°
2026-05-08 21:50 14.58287 -90.52756 4899 ft 99 kts 197°
2026-05-08 21:51 14.57782 -90.52921 4892 ft 54 kts 199°
2026-05-08 21:51 14.57544 -90.52998 4893 ft 22 kts 198°
2026-05-08 21:51 14.57447 -90.53052 4894 ft 8 kts 246°
2026-05-08 21:51 14.57458 -90.53086 4894 ft 4 kts 332°
2026-05-08 21:52 14.57509 -90.53081 4893 ft 9 kts 18°
2026-05-08 21:52 14.57584 -90.53056 4893 ft 12 kts 17°
2026-05-08 21:52 14.57679 -90.53024 4892 ft 15 kts 17°
2026-05-08 21:52 14.57790 -90.52988 4892 ft 17 kts 17°
2026-05-08 21:53 14.57913 -90.52949 4892 ft 18 kts 17°
2026-05-08 21:53 14.58038 -90.52910 4893 ft 18 kts 17°
2026-05-08 21:53 14.58160 -90.52870 4895 ft 17 kts 17°
2026-05-08 21:53 14.58272 -90.52834 4898 ft 16 kts 17°
2026-05-08 21:54 14.58378 -90.52799 4901 ft 17 kts 17°
2026-05-08 21:54 14.58501 -90.52760 4906 ft 18 kts 17°
2026-05-08 21:54 14.58613 -90.52724 4909 ft 14 kts 18°
2026-05-08 21:54 14.58674 -90.52726 4911 ft 8 kts 315°
2026-05-08 21:55 14.58703 -90.52788 4911 ft 11 kts 305°
2026-05-08 21:55 14.58770 -90.52811 4913 ft 10 kts 10°
2026-05-08 21:55 14.58832 -90.52793 4915 ft 5 kts 14°
2026-05-08 21:56 14.58871 -90.52834 4916 ft 6 kts 289°
2026-05-08 21:56 14.58886 -90.52879 4916 ft 4 kts 288°
2026-05-08 21:56 14.58890 -90.52892 4916 ft 0 kts 287°